SL-14 DEB

Satellite information

Favourite Embed

Satellite Type and Status

DEBRISIN ORBIT

Key statistics

Satellite SL-14 DEB at a glance.

Uptime

13776

Days in orbit

Revolutions

≈ 14.2

Per day

Orbit

LEO

Low Earth Orbit

Inclination

82.2

Latest

Satellite identification and parameters

Extended collection of information and parameters for SL-14 DEB.

Object identification

Identified? True

Debris? True

Object name: SL-14 DEB

International designator: 1987-068BP

Object number (NORAD): 25246

Object ID (CCSDS): 25246

Country: COMMONWEALTH OF INDEPENDENT STATES (CIS)

Current information (Y/N): Y

RCS size: SMALL

Orbital parameters

Period: 101.554 minutes

Inclination: 82.2482 deg

SMA: 7210.402 km

Apoapsis: 889.72 km

Periapsis: 774.814 km

RAAN: 307.8392 deg

Eccentricy: 0.0079681

Argument of periapsis: 147.3605 deg

Mean anomaly: 231.4208 deg

Mean motion: 14.17958581 rev/day

Mean motion (dot): 0.00002017 rev/day2

B* drag term: 0.00094848 1/REarth

Two-line elements (TLE)

Creation date: May 6, 2025, 3:54 a.m.

Reference frame: TEME

Reference center: EARTH

Epoch: May 5, 2025, 6:24 p.m. UTC

TLE line 0: 0 SL-14 DEB

TLE line 1: 1 25246U 87068BP 25125.76706802 .00002017 00000-0 94848-3 0 9995

TLE line 2: 2 25246 82.2482 307.8392 0079681 147.3605 231.4208 14.17958581399039

Live tracking on map

Real-time ground track for satellite SL-14 DEB.

In-orbit conjunctions

A list of the most updated potential collisions computed for object SL-14 DEB.

Target Orbit TCA Probability of collision Miss distance Type
THOR BURNER 2 R/B SSO 2025-05-06 08:28:47 0.000175618 511.0 (m) ROCKET BODY
FENGYUN 1C DEB SSO 2025-04-08 06:37:44 0.0005266583 43.0 (m) DEBRIS
FENGYUN 1C DEB SSO 2025-03-02 04:05:39 0.0001255991 323.0 (m) DEBRIS
METEOR 2-2 LEO 2024-11-23 17:08:59 0.0001006045 270.0 (m) PAYLOAD

Associated space launch

Second generation soviet meteorological satellite

SL-14 DEB was lifted into orbit during the mission ‘Tsiklon-3 | Meteor-2 16’, on board a Tsiklon-3 space rocket.

The launch took place on Aug. 18, 1987, 2:27 a.m. from 32/1.

For more information about the launch, click the button.

Launch to space Tsiklon-3 | Meteor-2 16
Tsiklon-3 | Meteor-2 16

Agency: N/A

Status: Launch Successful

Launch date: Aug. 18, 1987, 2:27 a.m. UTC

Rocket: Tsiklon-3

Launch pad: 32/1

Location: Plesetsk Cosmodrome, Russian Federation

...

Latest news about this satellite

There are no fresh news available about this satellite. Check back as we update our databases every day.


Newsletter sign-up

Weekly statistics, charts and insights to help you stay on top of the space industry.